Regional Weather Roundup
Issued by NWS

Home | Current Version | Previous Version | Graphics & Text | Print | Product List | Glossary On
Versions: 1 2 3 4 5 6 7 8 9 10 11 12 13 14 15 16 17 18 19 20 21 22 23 24 25 26 27 28 29 30 31 32 33 34 35 36 37 38 39 40 41 42 43 44 45 46 47 48 49 50
301
ASUS45 KCYS 110010
RWRWY

WYOMING REGIONAL WEATHER ROUNDUP
NATIONAL WEATHER SERVICE CHEYENNE WY
500 PM MST SAT DEC 10 2016

NOTE:  "FAIR" INDICATES FEW OR NO CLOUDS BELOW 12,000 FEET
WITH NO SIGNIFICANT WEATHER AND/OR OBSTRUCTIONS TO VISIBILITY.

WYZ001-110100-
YELLOWSTONE NATIONAL PARK

CITY           SKY/WX    TMP DP  RH WIND       PRES   REMARKS
LK YELLOWSTONE   N/A     26  22  84 VRB7      29.69R WCI  18
6HR MIN TEMP:  26; 6HR MAX TEMP:  29; 6HR PCP:  0.06;

W YELLOWSTONE  NOT AVBL

$$
WYZ002>013-054>058-071-098>099-110100-
NORTHERN WYOMING

CITY           SKY/WX    TMP DP  RH WIND       PRES   REMARKS
JACKSON        MOCLDY    36  25  64 SW32G44   29.71S WCI  22
CODY           CLOUDY    23  20  88 CALM      29.67R
GREYBULL       FAIR      21   6  52 NW12      29.67R WCI   9
6HR MIN TEMP:  14; 6HR MAX TEMP:  21;

WORLAND        FAIR      18  10  71 N5        29.62R WCI  11
6HR MIN TEMP:  12; 6HR MAX TEMP:  21;

SHERIDAN       LGT SNOW  20  16  84 NW13      29.67R FOG     WCI   7
6HR MIN TEMP:  15; 6HR MAX TEMP:  20; 6HR PCP: TRACE;

BUFFALO        CLOUDY    23  16  74 N18G25    29.56R WCI   9
6HR MIN TEMP:  20; 6HR MAX TEMP:  34;

GILLETTE       FAIR      18  15  88 SE3       29.55F
6HR MIN TEMP:  10; 6HR MAX TEMP:  21;

HULETT         CLOUDY    10   7  85 NE5       29.61R WCI   2
NEWCASTLE      FAIR      12   7  79 SE5       29.63F WCI   4

$$
WYZ014>020-022>026-101>103-110100-
CENTRAL WYOMING

CITY           SKY/WX    TMP DP  RH WIND       PRES   REMARKS
BIG PINEY      CLOUDY    32  28  85 SW3       29.77S
6HR MIN TEMP:  32; 6HR MAX TEMP:  38;

PINEDALE       CLOUDY    32  30  93 MISG      29.77S
DUBOIS         MOCLDY    32  21  64 NW20G31   29.64R WCI  20
LANDER         FAIR      41  24  51 E5        29.64S
6HR MIN TEMP:  20; 6HR MAX TEMP:  45;

RIVERTON       FAIR      36  23  59 W14       29.63R WCI  27
6HR MIN TEMP:  21; 6HR MAX TEMP:  41;

CASPER         FAIR      40  31  70 SW25G39   29.60F WCI  29
6HR MIN TEMP:  38; 6HR MAX TEMP:  41; 6HR PCP: TRACE;

DOUGLAS        FAIR      44  31  60 W22G32    29.61S
6HR MIN TEMP:  43; 6HR MAX TEMP:  45;


$$
WYZ021-027>030-104>119-110100-
SOUTHERN WYOMING

CITY           SKY/WX    TMP DP  RH WIND       PRES   REMARKS
EVANSTON       LGT SNOW  33  30  88 W10       29.86F VSB 3/4 WCI  25
6HR MIN TEMP:  33; 6HR MAX TEMP:  33; 6HR PCP:  0.08;

KEMMERER       FLURRIES  32  32 100 W20G28    29.82S WCI  20
FORT BRIDGER   CLOUDY    35  35 100 W20G28    29.87S WCI  24
ROCK SPRINGS   FAIR      35  31  85 W22       29.81F WCI  23
6HR MIN TEMP:  35; 6HR MAX TEMP:  40;

DIXON          CLOUDY    39  28  63 SW13G21   29.88R WCI  32
RAWLINS        CLOUDY    36  29  75 SW23G33   29.78R WCI  24
6HR MIN TEMP:  37; 6HR MAX TEMP:  40;

SARATOGA       CLOUDY    37  30  75 SW29      29.79S WCI  25
LARAMIE        CLOUDY    39  28  64 SW16      29.76R WCI  30
6HR MIN TEMP:  37; 6HR MAX TEMP:  42;

CHEYENNE       FAIR      44  29  55 W23G32    29.72R
6HR MIN TEMP:  44; 6HR MAX TEMP:  49;

TORRINGTON     FAIR      29  21  72 SE7       29.66S WCI  22
6HR MIN TEMP:  19; 6HR MAX TEMP:  34;

PINE BLUFFS    FAIR      36  28  75 S10G18    29.73R WCI  28

$$




USA.gov is the U.S. government's official web portal to all federal, state and local government web resources and services.